| time (UTC) | temp F | wind direction | speed knots | gust knots | rain 1hr in | rain 24hr in | rain mn in | humidity % | barometer mb |
| 20260504232003 | 83 | 131 | 2.6 | 5.2 | 0.00 | 0.00 | 0.00 | 28 | 1001.9 |
| 20260504230603 | 83 | 200 | 2.6 | 7.0 | 0.00 | 0.00 | 0.00 | 27 | 1002.0 |
| 20260504225203 | 82 | 102 | 2.6 | 7.0 | 0.00 | 0.00 | 0.00 | 28 | 1002.2 |
| 20260504223803 | 83 | 140 | 3.5 | 6.1 | 0.00 | 0.00 | 0.00 | 28 | 1002.3 |
| 20260504222403 | 83 | 136 | 1.7 | 5.2 | 0.00 | 0.00 | 0.00 | 30 | 1002.5 |
| 20260504221003 | 82 | 159 | 4.3 | 8.7 | 0.00 | 0.00 | 0.00 | 30 | 1002.7 |
| 20260504215603 | 82 | 183 | 3.5 | 7.8 | 0.00 | 0.00 | 0.00 | 28 | 1002.9 |
| 20260504214203 | 81 | 105 | 3.5 | 7.8 | 0.00 | 0.00 | 0.00 | 30 | 1003.0 |
| 20260504212803 | 81 | 173 | 3.5 | 7.0 | 0.00 | 0.00 | 0.00 | 29 | 1003.2 |
| 20260504211403 | 81 | 115 | 3.5 | 5.2 | 0.00 | 0.00 | 0.00 | 29 | 1003.4 |
| 20260504210004 | 81 | 99 | 1.7 | 6.1 | 0.00 | 0.00 | 0.00 | 27 | 1003.6 |
| 20260504204604 | 80 | 86 | 2.6 | 5.2 | 0.00 | 0.00 | 0.00 | 29 | 1003.8 |
| 20260504203204 | 80 | 148 | 2.6 | 8.7 | 0.00 | 0.00 | 0.00 | 27 | 1003.9 |
| 20260504201804 | 80 | 91 | 2.6 | 6.1 | 0.00 | 0.00 | 0.00 | 27 | 1004.0 |
| 20260504200404 | 79 | 126 | 3.5 | 7.8 | 0.00 | 0.00 | 0.00 | 29 | 1004.2 |
| 20260504195004 | 79 | 169 | 3.5 | 7.0 | 0.00 | 0.00 | 0.00 | 29 | 1004.3 |
| 20260504193604 | 79 | 131 | 2.6 | 4.3 | 0.00 | 0.00 | 0.00 | 30 | 1004.4 |
| 20260504192204 | 78 | 110 | 3.5 | 5.2 | 0.00 | 0.00 | 0.00 | 29 | 1004.6 |
| 20260504190804 | 78 | 127 | 3.5 | 7.0 | 0.00 | 0.00 | 0.00 | 34 | 1004.7 |
| 20260504185404 | 77 | 111 | 4.3 | 8.7 | 0.00 | 0.00 | 0.00 | 35 | 1004.9 |
| 20260504184004 | 77 | 148 | 3.5 | 7.0 | 0.00 | 0.00 | 0.00 | 35 | 1005.0 |
| 20260504182604 | 76 | 232 | 2.6 | 6.1 | 0.00 | 0.00 | 0.00 | 38 | 1005.0 |
| 20260504181204 | 76 | 124 | 1.7 | 4.3 | 0.00 | 0.00 | 0.00 | 39 | 1005.0 |
| 20260504175804 | 75 | 128 | 0.9 | 2.6 | 0.00 | 0.00 | 0.00 | 44 | 1005.0 |
| 20260504174404 | 73 | 127 | 0.9 | 2.6 | 0.00 | 0.00 | 0.00 | 41 | 1005.1 |
| 20260504173004 | 73 | 247 | 1.7 | 3.5 | 0.00 | 0.00 | 0.00 | 42 | 1005.1 |
| 20260504171605 | 71 | 149 | 1.7 | 3.5 | 0.00 | 0.00 | 0.00 | 44 | 1005.2 |
| 20260504170205 | 70 | 133 | 1.7 | 2.6 | 0.00 | 0.00 | 0.00 | 41 | 1005.2 |
| 20260504151005 | 67 | 90 | 0.0 | 0.0 | 0.00 | 0.00 | 0.00 | 45 | 1005.5 |
| 20260504130406 | 59 | 226 | 1.7 | 3.5 | 0.00 | 0.00 | 0.00 | 46 | 1004.4 |
| 20260504100207 | 59 | 30 | 0.0 | 0.9 | 0.00 | 0.00 | 0.00 | 54 | 1004.7 |
| 20260504081007 | 70 | 337 | 6.1 | 7.8 | 0.00 | 0.00 | 0.00 | 31 | 1004.6 |
| 20260504045408 | 72 | 326 | 5.2 | 9.6 | 0.00 | 0.00 | 0.00 | 37 | 1005.1 |
| 20260504044008 | 72 | 330 | 6.1 | 9.6 | 0.00 | 0.00 | 0.00 | 36 | 1005.1 |
| 20260504042608 | 70 | 349 | 4.3 | 6.1 | 0.00 | 0.00 | 0.00 | 40 | 1005.0 |
| 20260504041208 | 70 | 335 | 3.5 | 5.2 | 0.00 | 0.00 | 0.00 | 40 | 1004.9 |
| 20260504035808 | 70 | 305 | 1.7 | 6.1 | 0.00 | 0.00 | 0.00 | 41 | 1004.8 |
| 20260504034408 | 70 | 307 | 0.9 | 2.6 | 0.00 | 0.00 | 0.00 | 41 | 1004.7 |
| 20260504033008 | 70 | 309 | 1.7 | 2.6 | 0.00 | 0.00 | 0.00 | 42 | 1004.6 |
| 20260504031608 | 69 | 304 | 1.7 | 4.3 | 0.00 | 0.00 | 0.00 | 44 | 1004.5 |
| 20260504030209 | 67 | 319 | 2.6 | 3.5 | 0.00 | 0.00 | 0.00 | 48 | 1004.5 |
| 20260504024809 | 71 | 317 | 0.9 | 1.7 | 0.00 | 0.00 | 0.00 | 45 | 1004.5 |
| 20260504023409 | 75 | 303 | 1.7 | 2.6 | 0.00 | 0.00 | 0.00 | 40 | 1004.4 |
| 20260504022009 | 77 | 295 | 0.9 | 1.7 | 0.00 | 0.00 | 0.00 | 38 | 1004.5 |
| 20260504020609 | 81 | 222 | 0.0 | 0.9 | 0.00 | 0.00 | 0.00 | 37 | 1004.6 |
| 20260504015209 | 82 | 224 | 0.9 | 1.7 | 0.00 | 0.00 | 0.00 | 31 | 1004.7 |
| 20260504013809 | 82 | 204 | 0.9 | 2.6 | 0.00 | 0.00 | 0.00 | 30 | 1004.7 |
| 20260504012409 | 81 | 165 | 2.6 | 2.6 | 0.00 | 0.00 | 0.00 | 30 | 1004.9 |
| 20260504011009 | 81 | 161 | 1.7 | 4.3 | 0.00 | 0.00 | 0.00 | 29 | 1005.1 |
| 20260504005609 | 82 | 100 | 1.7 | 3.5 | 0.00 | 0.00 | 0.00 | 28 | 1005.1 |
| 20260504004209 | 81 | 162 | 2.6 | 4.3 | 0.00 | 0.00 | 0.00 | 28 | 1005.4 |
| 20260504002809 | 81 | 108 | 4.3 | 5.2 | 0.00 | 0.00 | 0.00 | 28 | 1005.4 |
| 20260504001409 | 81 | 124 | 2.6 | 5.2 | 0.00 | 0.00 | 0.00 | 28 | 1005.6 |
| 20260504000009 | 82 | 176 | 1.7 | 6.1 | 0.00 | 0.00 | 0.00 | 27 | 1005.8 |
| 20260503234609 | 82 | 150 | 1.7 | 2.6 | 0.00 | 0.00 | 0.00 | 28 | 1005.8 |
| 20260503233210 | 81 | 158 | 3.5 | 6.1 | 0.00 | 0.00 | 0.00 | 28 | 1006.0 |